TimeEDT,TemperatureF,Dew PointF,Humidity,Sea Level PressureIn,VisibilityMPH,Wind Direction,Wind SpeedMPH,Gust SpeedMPH,PrecipitationIn,Events,Conditions,WindDirDegrees,DateUTC
12:53 AM,35.1,32.0,89,30.13,10.0,Calm,Calm,-,N/A,,Clear,0,2011-10-22 04:53:00
1:53 AM,33.1,30.9,92,30.13,10.0,Calm,Calm,-,N/A,,Clear,0,2011-10-22 05:53:00
2:53 AM,33.1,30.9,92,30.13,10.0,Calm,Calm,-,N/A,,Clear,0,2011-10-22 06:53:00
3:53 AM,32.0,30.0,92,30.13,10.0,Calm,Calm,-,N/A,,Clear,0,2011-10-22 07:53:00
5:53 AM,32.0,30.0,92,30.14,10.0,Calm,Calm,-,N/A,,Clear,0,2011-10-22 09:53:00
6:53 AM,30.0,28.9,96,30.15,10.0,Calm,Calm,-,N/A,,Clear,0,2011-10-22 10:53:00
7:53 AM,30.9,28.9,92,30.16,10.0,Calm,Calm,-,N/A,,Clear,0,2011-10-22 11:53:00
8:53 AM,32.0,30.9,96,30.17,10.0,Calm,Calm,-,N/A,,Clear,0,2011-10-22 12:53:00
9:53 AM,44.1,37.9,79,30.17,10.0,Calm,Calm,-,N/A,,Clear,0,2011-10-22 13:53:00
10:53 AM,52.0,36.0,54,30.16,10.0,SW,5.8,-,N/A,,Clear,220,2011-10-22 14:53:00
11:53 AM,55.9,34.0,44,30.15,10.0,WSW,6.9,-,N/A,,Clear,250,2011-10-22 15:53:00
12:53 PM,60.1,34.0,38,30.14,10.0,Variable,5.8,-,N/A,,Clear,0,2011-10-22 16:53:00
1:53 PM,61.0,33.1,35,30.12,10.0,West,6.9,-,N/A,,Clear,260,2011-10-22 17:53:00
2:53 PM,62.1,33.1,34,30.10,10.0,SW,10.4,-,N/A,,Clear,230,2011-10-22 18:53:00
3:53 PM,63.0,35.1,35,30.09,10.0,SSW,9.2,-,N/A,,Clear,210,2011-10-22 19:53:00
4:53 PM,63.0,35.1,35,30.08,10.0,WSW,5.8,-,N/A,,Clear,240,2011-10-22 20:53:00
5:53 PM,62.1,35.1,37,30.07,10.0,SW,4.6,-,N/A,,Clear,220,2011-10-22 21:53:00
6:53 PM,53.1,39.0,59,30.08,10.0,SW,3.5,-,N/A,,Clear,230,2011-10-22 22:53:00
7:53 PM,48.0,39.0,71,30.09,10.0,Calm,Calm,-,N/A,,Clear,0,2011-10-22 23:53:00
8:53 PM,46.0,37.9,73,30.09,10.0,Calm,Calm,-,N/A,,Clear,0,2011-10-23 00:53:00
9:53 PM,44.1,37.9,79,30.09,10.0,Calm,Calm,-,N/A,,Clear,0,2011-10-23 01:53:00
10:53 PM,42.1,37.9,85,30.08,10.0,Calm,Calm,-,N/A,,Clear,0,2011-10-23 02:53:00
11:53 PM,39.9,37.0,89,30.07,10.0,Calm,Calm,-,N/A,,Clear,0,2011-10-23 03:53:00